This demonstration page uses our WeatherBlox Daily Observations layout. Learn more.

39.92423, -83.80882

Hourly Observations for May 21, 2019

Temp ( °F °C ) Dew Point ( °F °C ) Humidity (%) Winds ( mph kmh ) Pressure ( in mb ) Visibility ( mi km ) Precip ( " mm )
12:56 am 00:56 Clear 47 8.3 44 6.7 90 90 N 8 13 30.1 1019 10 16.0934 0 0
1:56 am 01:56 Clear 46 7.8 44 6.7 93 93 N 6 9 30.1 1019 10 16.0934 0 0
2:56 am 02:56 Clear 45 7.2 43 6.1 93 93 NNE 7 11 30.1 1019 10 16.0934 0 0
3:56 am 03:56 Clear 45 7.2 43 6.1 93 93 NNE 7 11 30.11 1020 10 16.0934 0 0
4:56 am 04:56 Clear 45 7.2 44 6.7 97 97 NE 5 7 30.12 1020 10 16.0934 0 0
5:56 am 05:56 Clear 47 8.3 44 6.7 90 90 NNE 7 11 30.14 1021 10 16.0934 0 0
6:56 am 06:56 Sunny 47 8.3 45 7.2 93 93 ENE 9 15 30.11 1020 10 16.0934 0 0
7:56 am 07:56 Sunny 49 9.4 46 7.8 90 90 ENE 8 13 30.17 1022 10 16.0934 0 0
8:56 am 08:56 Sunny 49 9.4 45 7.2 86 86 E 7 11 30.16 1022 10 16.0934 0 0
9:56 am 09:56 Sunny 51 10.6 43 6.1 74 74 ENE 14 22 30.17 1022 10 16.0934 0 0
10:56 am 10:56 Sunny 54 12.2 43 6.1 67 67 E 16 26 30.15 1021 10 16.0934 0 0
11:56 am 11:56 Sunny 57 13.9 42 5.6 58 58 ESE 15 24 30.14 1021 10 16.0934 0 0
12:56 pm 12:56 Mostly Sunny 59 15 43 6.1 56 56 ESE 10 17 30.14 1021 10 16.0934 0 0
1:56 pm 13:56 Cloudy 60 15.6 42 5.6 52 52 E 12 19 30.14 1021 10 16.0934 0 0
2:56 pm 14:56 Mostly Cloudy 61 16.1 43 6.1 52 52 E 14 22 30.12 1020 10 16.0934 0 0
3:56 pm 15:56 Mostly Cloudy 61 16.1 43 6.1 52 52 ENE 13 20 30.12 1020 10 16.0934 0 0
4:56 pm 16:56 Cloudy 60 15.6 43 6.1 53 53 E 14 22 30.09 1019 10 16.0934 0 0
5:56 pm 17:56 Cloudy 61 16.1 44 6.7 54 54 E 13 20 30.11 1020 10 16.0934 0 0
6:56 pm 18:56 Cloudy 60 15.6 45 7.2 58 58 E 15 24 30.08 1019 10 16.0934 0 0
7:56 pm 19:56 Mostly Cloudy 59 15 45 7.2 60 60 E 10 17 30.08 1019 10 16.0934 0 0
8:56 pm 20:56 Mostly Clear 56 13.3 45 7.2 67 67 E 10 17 30.08 1019 10 16.0934 0 0
9:56 pm 21:56 Mostly Clear 55 12.8 46 7.8 72 72 E 9 15 30.07 1018 10 16.0934 0 0
10:56 pm 22:56 Clear 55 12.8 47 8.3 74 74 E 12 19 30.08 1019 10 16.0934 0 0
11:56 pm 23:56 Clear 54 12.2 46 7.8 75 75 E 14 22 30.08 1019 10 16.0934 0 0

Powered by AerisWeather